ECHOSTAR 10

Last updated on Tue Jul 01 2025 00:02:44 GMT+0000 (Coordinated Universal Time)

1 28935U 06003A 25181.61811088 -.00000055 00000+0 00000+0 0 9995 2 28935 0.0165 341.5520 0002405 64.8817 344.8107 1.00271607 70936
UTC large
Height (km)
Speed (km/s)
/
Latitude / Longitude
Inclination (degrees)
Orbital Period (minutes)
Azimuth
Elevation
Range (km)
Doppler Factor

Next 0 passes for location: London (51.5072 / 0.1276)

Sorry there are no passes over London.